Las Vegas, NV

10:04 AM PDT on September 22, 2017 (GMT -0700)
McCarran International

Weather History for KLAS - December, 2012

Change the Weather History Date:

Thursday, December 6, 2012

  Actual Average Record
Temperature  
Mean Temperature 59 °F 49 °F  
Max Temperature 69 °F 58 °F 76 °F (1938)
Min Temperature 48 °F 40 °F 23 °F (1942)
Degree Days  
Heating Degree Days 6 16  
Month to date heating degree days 33 94  
Since 1 July heating degree days 218 403  
Cooling Degree Days 0 0  
Month to date cooling degree days 0 0  
Year to date cooling degree days 4032 3568  
Growing Degree Days 8 (Base 50)    
Moisture  
Dew Point 39 °F    
Average Humidity 53    
Maximum Humidity 71    
Minimum Humidity 35    
Precipitation  
Precipitation 0.00 in 0.02 in 0.43 in (1966)
Month to date precipitation 0.00 0.08  
Year to date precipitation 4.82 3.77  
Snow  
Snow 0.00 in 0.00 in 1.00 in (1998)
Month to date snowfall 0.0 0.0  
Since 1 July snowfall T 0.0  
Snow Depth 0.00 in    
Sea Level Pressure  
Sea Level Pressure 29.88 in    
Wind  
Wind Speed 7 mph (SSW)    
Max Wind Speed 13 mph    
Max Gust Speed 15 mph    
Visibility 10 miles    
Events      
T = Trace of Precipitation, MM = Missing Value Source: NWS Daily Summary

Daily Weather History Graph

Daily Weather History Graph

Search for Another Location

Airport or City:

Trip Planner

Search our weather history database for the weather conditions in past years. The results will help you decide how hot, cold, wet, or windy it might be!

Date:

Astronomy

Dec. 06, 2012 Rise Set
Actual Time 6:37 AM PST 4:26 PM PST
Civil Twilight 6:09 AM PST 4:54 PM PST
Nautical Twilight 5:37 AM PST 5:26 PM PST
Astronomical Twilight 5:06 AM PST 5:57 PM PST
Moon No Moon Rise 11:43 AM PST (12/6)
Length of Visible Light 10h 45m
Length of Day
9h 48m
Waning Gibbous, 48% of the Moon is Illuminated
Dec 6
Waning Gibbous
Dec 13
New
Dec 19
First Quarter
Dec 28
Full
Jan 4
Last Quarter

Hourly Weather History & Observations

Time (PST) Temp. Dew Point Humidity Pressure Visibility Wind Dir Wind Speed Gust Speed Precip Events Conditions
12:56 AM 51.1 °F 39.9 °F 66% 29.93 in 10.0 mi SSW 6.9 mph - N/A   Scattered Clouds
1:56 AM 50.0 °F 39.0 °F 66% 29.93 in 10.0 mi SSW 6.9 mph - N/A   Scattered Clouds
2:56 AM 48.9 °F 37.9 °F 66% 29.93 in 10.0 mi SSW 8.1 mph - N/A   Scattered Clouds
3:56 AM 48.9 °F 39.0 °F 69% 29.91 in 10.0 mi SSW 5.8 mph - N/A   Scattered Clouds
4:56 AM 48.9 °F 39.0 °F 69% 29.91 in 10.0 mi SSW 9.2 mph - N/A   Mostly Cloudy
5:56 AM 48.9 °F 37.9 °F 66% 29.91 in 10.0 mi South 8.1 mph - N/A   Scattered Clouds
6:56 AM 48.9 °F 37.0 °F 64% 29.92 in 10.0 mi SSW 6.9 mph - N/A   Scattered Clouds
7:56 AM 52.0 °F 37.9 °F 59% 29.93 in 10.0 mi SSW 5.8 mph - N/A   Scattered Clouds
8:56 AM 57.9 °F 37.9 °F 47% 29.93 in 10.0 mi SSW 5.8 mph - N/A   Scattered Clouds
9:56 AM 61.0 °F 39.0 °F 44% 29.94 in 10.0 mi South 8.1 mph - N/A   Scattered Clouds
10:56 AM 64.0 °F 39.0 °F 40% 29.91 in 10.0 mi Calm Calm - N/A   Partly Cloudy
11:56 AM 66.0 °F 39.9 °F 38% 29.88 in 10.0 mi Calm Calm - N/A   Scattered Clouds
12:56 PM 68.0 °F 39.9 °F 36% 29.85 in 10.0 mi Calm Calm - N/A   Scattered Clouds
1:56 PM 68.0 °F 39.9 °F 36% 29.83 in 10.0 mi South 9.2 mph - N/A   Scattered Clouds
2:56 PM 68.0 °F 39.9 °F 36% 29.82 in 10.0 mi South 9.2 mph - N/A   Partly Cloudy
3:56 PM 68.0 °F 39.9 °F 36% 29.81 in 10.0 mi South 8.1 mph - N/A   Partly Cloudy
4:56 PM 66.0 °F 39.9 °F 38% 29.82 in 10.0 mi South 4.6 mph - N/A   Clear
5:56 PM 63.0 °F 41.0 °F 45% 29.83 in 10.0 mi South 5.8 mph - N/A   Clear
6:56 PM 61.0 °F 39.0 °F 44% 29.85 in 10.0 mi SSW 10.4 mph - N/A   Clear
7:56 PM 57.9 °F 39.0 °F 49% 29.85 in 10.0 mi SW 4.6 mph - N/A   Clear
8:56 PM 57.0 °F 39.0 °F 51% 29.86 in 10.0 mi SSW 9.2 mph - N/A   Clear
9:56 PM 55.9 °F 39.0 °F 53% 29.87 in 10.0 mi SSW 10.4 mph - N/A   Clear
10:56 PM 55.0 °F 39.0 °F 55% 29.87 in 10.0 mi SSW 12.7 mph - N/A   Clear
11:56 PM 54.0 °F 39.0 °F 57% 29.87 in 10.0 mi SSW 8.1 mph - N/A   Partly Cloudy